Location: Johnson City
(36.3130°N, 82.3540°W)
Time: 05:56:11
(UTC-04:00)

Tiangong 2 - Visible Passes

Search period start: 27 May 2017 00:00
Search period end: 06 June 2017 00:00
Orbit: 380 x 389 km, 42.8° (Epoch: 24 May)

Date Brightness Start Highest point End Pass type
(mag) Time Alt. Az. Time Alt. Az. Time Alt. Az.
27 May 3.2 21:57:33 10° WNW 22:00:18 26° N 22:03:03 10° NE visible
27 May 3.8 23:34:47 10° NW 23:36:17 21° NNW 23:36:17 21° NNW visible
28 May 3.2 22:35:03 10° NW 22:37:45 24° N 22:39:16 17° NE visible
29 May 3.3 21:35:12 10° WNW 21:37:51 24° N 21:40:32 10° NE visible
29 May 2.9 23:12:08 10° NW 23:14:23 31° NNW 23:14:23 31° NNW visible
30 May 2.9 22:12:27 10° NW 22:15:16 28° N 22:17:15 15° ENE visible
30 May 4.2 23:49:04 10° WNW 23:49:26 13° WNW 23:49:26 13° WNW visible
31 May 3.2 21:12:41 10° NW 21:15:23 24° N 21:18:04 10° ENE visible
31 May 1.7 22:49:23 10° WNW 22:52:17 52° N 22:52:17 52° N visible
01 Jun 2.4 21:49:44 10° NW 21:52:41 36° NNE 21:55:08 14° E visible
01 Jun 3.7 23:26:26 10° WNW 23:27:19 17° W 23:27:19 17° W visible
02 Jun 0.9 22:26:38 10° WNW 22:29:48 88° SW 22:30:09 69° ESE visible
03 Jun 1.6 21:26:55 10° WNW 21:30:03 53° NNE 21:33:01 11° E visible
03 Jun 3.4 23:04:00 10° W 23:05:12 18° WSW 23:05:12 18° WSW visible
04 Jun 1.6 22:03:56 10° WNW 22:07:00 46° SSW 22:08:05 31° SSE visible
05 Jun 3.6 22:42:09 10° WSW 22:43:12 12° SW 22:43:12 12° SW visible
